SCP
10 10 9 9 9 12 12 8 6 5 4 3 4 4 4 4 4 4 4 5 5 6 6 6 5 5 4 5 4 3 2 2 2 2 2 2 2 2 2 2 2 1 1
10 9 9 10 10 10 8 6 5 5 4 4 4 4 4 5 5 5 5 5 5 6 6 6 6 6 6 5 5 4 3 2 2 2 2 2 2 2 2 2 2 2 2
9 9 11 11 10 8 6 5 5 4 4 4 4 5 4 5 5 5 5 5 6 6 6 6 7 7 7 6 5 5 4 3 2 2 2 2 2 2 3 2 2 2 2
9 10 11 12 10 7 5 5 5 5 5 5 5 4 4 5 6 6 6 7 7 7 7 7 7 6 6 6 6 6 5 4 3 3 3 2 3 3 3 3 2 2 2
10 10 11 10 9 7 5 5 6 6 6 6 6 5 5 5 6 7 7 8 9 10 10 8 7 6 5 5 6 7 7 6 5 4 3 3 3 4 4 3 3 3 3
10 10 9 9 8 6 6 6 7 7 8 8 7 6 5 5 6 6 7 8 10 11 11 9 7 5 4 4 4 5 6 5 5 5 5 4 5 5 4 3 3 3 3
9 10 10 10 9 7 6 7 8 9 10 11 9 7 6 5 5 5 5 7 9 10 10 9 7 6 5 5 4 4 4 4 5 6 6 5 6 6 6 5 5 4 4
10 11 11 10 9 8 7 7 9 12 13 14 12 9 6 5 4 4 4 5 7 8 8 8 7 6 6 6 6 6 5 5 5 5 6 5 5 6 7 7 6 5 5
11 11 9 8 8 8 7 8 10 13 14 14 13 9 6 4 3 2 3 5 6 7 7 7 6 6 6 7 7 8 7 6 5 4 4 4 4 4 6 8 7 5 5
10 9 8 8 8 8 7 8 9 11 12 11 11 8 6 5 3 2 2 4 6 6 6 6 5 5 5 6 7 8 8 7 6 5 4 4 4 4 4 6 6 5 4
8 8 8 9 8 7 7 7 7 8 9 10 10 8 7 5 4 2 2 3 5 6 6 5 4 3 3 3 4 6 6 6 6 6 6 6 6 6 5 5 4 4 4
6 7 8 9 9 7 6 6 6 8 9 10 9 8 7 6 5 3 2 2 4 5 5 5 4 3 2 1 2 2 3 3 4 5 6 7 8 8 7 5 4 4 4
5 6 7 8 9 8 6 6 6 8 10 10 10 9 9 8 6 4 2 2 2 4 5 5 3 2 1 1 1 1 1 2 4 5 6 8 9 9 8 5 4 4 4
5 5 5 6 8 8 7 6 6 8 10 12 12 11 10 9 8 6 5 4 3 5 6 5 3 2 2 2 2 2 2 3 4 5 7 9 9 9 7 5 5 5 5
4 4 4 5 7 7 7 6 5 6 8 9 10 11 11 9 7 7 6 5 5 6 7 7 5 4 3 3 3 4 4 4 5 7 9 10 9 7 6 5 5 5 5
3 3 3 4 5 6 5 4 2 2 3 4 5 7 8 6 4 4 3 3 3 4 6 6 6 4 4 4 4 4 4 5 6 7 8 9 8 6 5 5 4 4 4
2 2 3 4 4 4 4 2 1 0 0 1 1 2 3 2 1 1 0 0 1 2 3 4 4 4 4 4 4 4 3 4 5 5 6 6 6 5 5 5 4 4 3
2 2 2 3 3 3 2 1 1 1 1 1 0 0 0 0 0 0 0 0 0 1 2 3 3 3 4 5 5 4 4 3 3 3 3 3 4 4 4 4 4 3 3
1 1 1 2 2 2 1 1 1 1 1 1 1 0 0 0 0 0 0 1 1 1 1 2 3 3 4 5 5 5 4 3 3 2 2 2 3 3 3 3 3 3 3
1 1 1 1 1 1 1 1 0 1 1 1 1 1 1 1 1 1 1 1 2 2 1 2 2 3 4 4 5 5 4 4 3 3 2 2 2 2 2 2 2 2 3
1 0 0 0 0 1 1 1 1 1 1 1 0 0 1 2 3 3 2 2 3 3 2 2 2 3 4 4 5 5 4 4 3 3 3 3 2 2 2 1 2 2 2
1 0 0 0 0 1 1 1 1 1 0 0 0 0 1 2 4 5 4 3 4 4 4 3 3 3 4 5 5 5 5 4 4 4 4 3 3 2 2 1 1 2 2
1 1 0 0 1 1 1 1 1 0 0 0 0 0 1 2 4 6 6 5 5 5 5 4 3 3 4 5 5 5 4 4 4 4 3 3 2 2 2 2 1 1 1
1 1 1 0 0 0 0 0 0 0 0 0 0 0 0 1 3 6 7 7 6 5 5 4 4 4 4 5 5 4 4 3 4 4 3 2 2 2 2 2 1 1 1
0 1 0 0 0 0 0 0 0 0 0 0 0 0 0 1 2 5 7 8 6 5 4 4 3 3 4 5 5 4 3 2 2 2 2 2 2 2 1 1 1 1 1
0 0 0 0 0 0 0 0 0 0 0 0 0 0 0 1 2 5 7 7 6 4 4 3 3 3 4 4 4 3 2 1 1 1 1 2 2 1 1 1 1 1 1
Wind_Speed
10 9 8 8 8 8 7 7 7 7 7 7 6 6 6 6 6 6 6 6 6 6 6 6 6 5 4 4 4 4 4 4 5 3 2 1 2 2 2 3 3 4 4
9 8 9 8 8 8 8 7 7 7 7 7 7 7 7 6 6 7 7 7 7 7 6 6 6 5 6 5 4 5 4 4 5 4 3 2 3 3 3 4 3 3 3
8 8 8 8 8 7 8 7 7 7 7 7 7 7 7 7 7 7 7 7 7 7 6 6 6 6 6 5 5 5 5 5 5 5 4 3 3 3 4 4 4 3 4
7 8 7 7 7 8 7 7 7 7 7 7 7 7 7 7 7 7 7 7 7 6 6 7 7 6 7 6 6 6 5 5 5 5 4 4 4 4 4 4 4 4 3
7 7 7 6 6 5 5 6 6 6 7 7 7 7 7 7 6 7 7 7 7 7 6 7 7 5 5 5 5 5 5 5 5 5 5 4 4 3 4 4 4 4 4
5 6 6 5 5 4 4 5 5 6 6 7 7 7 7 6 4 4 6 6 6 7 7 7 7 7 7 7 6 5 5 6 6 5 5 4 4 5 4 5 4 4 3
5 5 4 4 4 4 4 5 6 6 6 7 7 7 7 5 5 6 6 6 6 6 6 6 6 4 7 7 8 9 7 7 6 6 6 6 5 4 5 6 5 5 4
4 3 3 3 3 3 4 5 5 5 5 5 6 6 6 5 6 7 6 7 6 6 6 6 6 5 5 5 6 7 7 7 7 7 6 6 4 3 5 6 5 5 5
3 2 2 2 2 3 4 4 4 4 4 5 5 5 5 4 6 7 7 6 5 6 6 5 6 6 4 5 7 7 6 6 6 6 5 4 2 2 4 4 4 5 5
1 1 1 2 2 2 3 3 4 4 4 4 4 4 5 4 5 7 7 5 5 5 5 5 4 5 4 5 7 7 7 6 5 5 6 5 5 4 4 5 5 5 4
1 1 1 1 2 2 2 2 3 3 3 3 3 4 4 4 5 6 7 5 5 5 5 5 3 4 5 6 7 6 5 5 5 5 5 4 4 4 4 4 4 4 4
1 0 1 1 2 1 2 2 3 3 3 3 3 3 3 3 3 5 6 6 5 5 4 4 2 5 5 5 5 3 4 5 4 4 4 4 3 3 3 3 3 3 3
0 1 1 1 1 2 2 2 3 3 2 2 2 3 3 2 2 5 7 8 7 5 3 1 2 5 6 6 5 5 6 5 4 4 4 4 3 3 3 3 3 3 4
1 1 1 2 2 1 2 2 2 2 2 2 2 3 2 2 2 2 3 3 5 5 3 4 5 6 5 3 5 5 4 3 3 4 4 3 3 3 3 3 3 3 3
1 1 1 1 1 1 1 2 2 2 2 2 2 3 3 3 1 1 2 2 3 2 2 3 3 4 4 4 4 3 3 3 4 3 3 3 3 3 3 3 3 3 3
1 1 2 1 1 1 1 0 3 1 2 2 2 4 3 2 0 1 1 1 2 3 4 4 4 4 4 3 3 3 3 3 3 3 3 3 3 3 3 2 3 3 3
2 2 2 2 1 2 2 2 1 0 1 0 1 1 1 2 2 3 3 4 4 5 4 4 3 3 3 3 3 3 3 3 3 3 3 3 3 3 3 2 3 3 3
2 2 2 2 2 2 2 2 2 2 1 1 1 1 2 2 2 2 3 3 3 4 4 3 3 3 3 3 3 3 3 3 3 3 3 3 3 3 3 3 3 3 3
2 2 2 2 2 2 2 2 2 2 2 1 1 1 2 3 3 3 4 3 2 2 2 2 2 2 2 2 2 2 2 2 2 2 3 3 3 3 3 3 3 3 4
1 1 2 2 2 2 2 2 2 2 2 1 1 1 1 2 1 2 2 2 1 2 2 2 2 2 2 2 2 2 2 2 2 3 3 3 3 3 4 4 4 3 4
1 1 2 2 2 2 2 2 2 2 1 1 1 1 2 2 1 1 1 1 1 2 1 2 2 2 2 2 2 2 3 2 2 3 3 3 3 3 3 4 4 4 4
1 1 1 1 1 1 2 2 1 1 1 1 1 1 2 2 1 1 1 1 1 1 1 2 2 1 1 1 2 2 3 2 3 3 3 3 3 3 4 4 3 4 4
1 1 1 1 0 0 1 1 0 1 1 1 1 1 1 1 1 1 1 1 1 1 1 1 2 1 1 1 2 2 2 2 3 3 3 3 3 3 3 3 4 4 4
1 1 1 1 1 1 1 1 1 0 1 1 1 1 1 0 1 1 1 1 1 1 1 2 2 2 3 2 2 1 1 2 3 3 4 4 4 3 3 3 3 3 3
0 0 1 1 1 1 1 1 1 1 1 1 0 0 0 1 1 1 1 1 1 1 1 2 1 1 2 2 1 1 2 2 2 4 4 4 4 4 4 4 4 4 4
1 1 1 1 1 1 1 1 1 1 1 1 1 1 1 1 1 1 1 1 1 0 1 1 1 1 1 1 1 1 0 0 1 3 4 4 4 3 4 4 5 5 5
Wind_Direction
195 194 199 197 202 208 212 217 216 216 209 208 211 212 210 206 205 211 220 213 221 223 227 225 230 245 248 243 235 241 244 250 258 259 238 176 203 245 206 232 214 215 178
191 193 198 198 200 207 213 217 218 217 214 211 211 212 216 212 208 213 220 219 224 229 230 231 233 227 230 243 241 241 237 237 250 258 247 218 211 221 222 236 231 229 217
186 194 196 199 199 205 216 216 216 216 215 213 210 214 218 217 214 216 221 225 228 232 233 232 234 232 234 231 236 240 237 230 234 245 241 222 217 204 214 229 233 238 237
184 193 197 199 203 207 210 212 212 212 214 214 215 218 218 217 217 216 217 224 229 233 234 235 236 234 236 235 233 236 240 241 232 243 240 222 220 208 217 224 224 213 229
182 185 190 193 200 203 206 209 210 212 215 214 217 218 218 216 217 214 216 219 226 234 236 238 236 235 243 247 252 237 231 237 237 239 240 233 227 218 228 230 230 222 213
185 187 185 186 189 197 208 212 213 215 219 215 216 216 217 219 189 214 235 226 227 232 237 242 236 221 222 222 242 253 253 243 244 244 242 244 242 238 240 243 239 232 231
177 180 177 179 186 203 216 218 216 215 216 218 219 217 219 212 184 200 229 239 235 237 239 242 245 228 225 223 212 217 228 238 247 254 253 255 251 239 240 240 241 241 246
164 163 163 176 176 187 207 215 217 219 217 220 227 225 223 212 188 198 217 229 235 236 239 241 243 241 237 240 232 223 224 223 227 236 253 263 267 265 239 244 243 236 238
155 152 162 185 184 196 210 218 223 227 230 229 230 232 228 211 192 199 216 225 227 234 238 241 245 239 230 238 237 233 228 223 208 207 227 246 267 264 257 240 229 228 233
143 150 179 211 219 216 226 232 233 233 234 238 234 236 233 224 194 196 213 229 229 233 232 228 230 245 224 223 231 233 232 231 228 209 211 219 225 214 221 241 245 243 242
59 129 193 232 241 237 246 246 243 235 232 243 244 229 224 226 192 192 206 231 234 236 237 230 215 193 203 215 237 239 238 246 233 225 217 212 211 214 218 228 252 261 257
50 289 252 256 272 267 241 243 242 233 222 231 237 226 217 216 208 192 195 222 258 243 243 241 191 155 185 203 215 231 237 244 236 226 221 214 213 215 211 217 232 254 270
317 283 265 251 251 245 239 232 227 226 228 228 238 239 238 224 189 185 192 207 230 241 247 213 160 177 191 194 200 219 225 229 233 228 225 225 218 213 211 201 211 220 233
264 262 240 234 238 234 259 258 252 243 244 245 258 267 261 241 243 217 197 198 205 217 218 169 173 195 213 203 194 201 217 231 241 240 239 237 229 213 211 209 215 210 222
293 274 260 249 246 240 285 335 299 314 305 275 277 280 279 269 281 336 269 234 235 230 223 205 210 204 209 206 205 205 213 209 222 238 240 230 224 219 215 215 222 230 226
251 261 270 256 232 232 206 27 45 8 17 350 301 285 302 316 196 165 168 183 196 198 216 215 216 219 222 220 217 210 208 214 222 229 231 230 226 223 223 223 227 229 229
273 275 276 270 251 241 234 235 247 151 140 298 333 316 256 252 227 213 203 192 197 193 213 217 219 224 228 228 231 232 226 214 219 226 227 225 223 225 222 221 226 235 236
279 276 267 265 266 258 258 259 265 268 263 239 165 172 207 207 208 222 212 200 205 206 219 216 217 221 226 227 229 232 234 224 216 219 221 222 223 226 225 223 220 229 240
281 283 291 295 284 279 279 276 269 265 260 245 217 178 190 193 189 206 210 228 222 224 231 229 229 230 233 240 241 239 244 242 231 225 216 222 228 230 233 235 229 209 233
273 322 284 283 284 281 276 269 268 265 257 245 242 242 198 210 203 176 202 223 226 233 239 240 242 248 242 242 241 241 241 237 230 232 233 235 234 236 232 234 234 232 233
281 222 227 250 262 281 288 285 285 279 272 268 271 331 303 253 233 212 212 213 215 222 228 235 235 229 227 229 236 239 239 242 247 247 244 242 243 241 241 238 233 235 233
287 275 276 293 297 307 304 298 300 292 281 273 256 172 228 251 251 235 218 222 238 241 232 235 245 248 249 248 242 243 238 237 245 250 248 242 237 238 239 237 235 237 236
286 298 308 324 312 217 251 263 280 299 312 313 309 274 234 264 282 283 283 273 264 256 241 231 242 254 264 267 265 258 256 252 250 251 256 252 246 241 241 238 238 241 241
325 315 314 333 345 347 5 19 7 348 325 308 300 311 320 325 315 304 297 284 256 250 253 244 241 248 260 270 278 285 334 326 294 266 257 258 255 253 253 249 249 248 245
21 19 348 356 22 21 19 12 4 356 331 319 298 261 269 280 277 288 294 283 266 261 264 261 253 254 256 256 282 339 20 358 315 300 265 252 246 247 252 253 253 251 245
29 22 12 33 45 40 31 15 11 355 337 343 354 353 345 315 290 280 283 285 283 280 268 252 257 271 271 267 312 39 101 285 291 288 272 258 251 247 250 252 251 250 243